Tracking 29892 objects as of 21-Nov-2024
HD Live streaming from Space Station
objects crossing your sky now

STARLINK-31263

Track STARLINK-31263 now!
10-day predictions
STARLINK-31263 is classified as:


NORAD ID: 58832
Int'l Code: 2024-017G
Perigee: 469.5 km
Apogee: 471.4 km
Inclination: 53.2 °
Period: 93.9 minutes
Semi major axis: 6841 km
RCS: Unknown
Launch date: January 24, 2024
Source: United States (US)
Launch site: AIR FORCE WESTERN TEST RANGE (AFWTR)
Your satellite tracking list
Your tracking list is empty




NASA's NSSDC Master Catalog

Two Line Element Set (TLE):
1 58832U 24017G   24325.81205852 -.00002289  00000-0 -57016-4 0  9993
2 58832  53.1629 252.5154 0001451  68.4638 291.6519 15.34194435 47513
Source of the keplerian elements: AFSPC